date,time,SUV Intensity [MED/Hr],UV Index,Daily total [MED],Since Last [MED]
23/10/2022,00:02:07,0.000,0.0,0.0,0.0
23/10/2022,00:02:48,0.000,0.0,0.0,0.0
23/10/2022,00:03:49,-0.000,0.0,0.0,0.0
23/10/2022,00:04:49,0.000,0.0,0.0,0.0
23/10/2022,00:05:49,0.002,0.0,0.0,0.0
23/10/2022,00:06:49,-0.001,0.0,0.0,0.0
23/10/2022,00:07:49,-0.001,0.0,0.0,0.0
23/10/2022,00:08:49,0.000,0.0,0.0,0.0
23/10/2022,00:09:50,0.000,0.0,0.0,0.0
23/10/2022,00:10:49,0.000,0.0,0.0,0.0
23/10/2022,00:11:49,0.000,0.0,0.0,0.0
23/10/2022,00:12:49,-0.001,0.0,0.0,0.0
23/10/2022,00:13:49,-0.001,0.0,0.0,0.0
23/10/2022,00:14:49,0.000,0.0,0.0,0.0
23/10/2022,00:15:49,0.000,0.0,0.0,0.0
23/10/2022,00:16:49,-0.001,0.0,0.0,0.0
23/10/2022,00:17:49,-0.000,0.0,0.0,0.0
23/10/2022,00:18:49,0.000,0.0,0.0,0.0
23/10/2022,00:19:50,0.000,0.0,0.0,0.0
23/10/2022,00:20:49,-0.000,0.0,0.0,0.0
23/10/2022,00:21:50,0.001,0.0,0.0,0.0
23/10/2022,00:22:49,-0.000,0.0,0.0,0.0
23/10/2022,00:23:49,0.000,0.0,0.0,0.0
23/10/2022,00:24:49,0.000,0.0,0.0,0.0
23/10/2022,00:25:49,-0.001,0.0,0.0,0.0
23/10/2022,00:26:49,0.000,0.0,0.0,0.0
23/10/2022,00:27:50,-0.001,0.0,0.0,0.0
23/10/2022,00:28:49,-0.000,0.0,0.0,0.0
23/10/2022,00:29:50,0.000,0.0,0.0,0.0
23/10/2022,00:30:49,-0.000,0.0,0.0,0.0
23/10/2022,00:31:49,0.000,0.0,0.0,0.0
23/10/2022,00:32:49,0.000,0.0,0.0,0.0
23/10/2022,00:33:50,0.001,0.0,0.0,0.0
23/10/2022,00:34:49,0.000,0.0,0.0,0.0
23/10/2022,00:35:49,0.000,0.0,0.0,0.0
23/10/2022,00:36:50,0.000,0.0,0.0,0.0
23/10/2022,00:37:50,0.000,0.0,0.0,0.0
23/10/2022,00:38:50,-0.000,0.0,0.0,0.0
23/10/2022,00:39:49,-0.000,0.0,0.0,0.0
23/10/2022,00:40:50,0.000,0.0,0.0,0.0
23/10/2022,00:41:49,-0.001,0.0,0.0,0.0
23/10/2022,00:42:49,-0.001,0.0,0.0,0.0
23/10/2022,00:43:49,-0.001,0.0,0.0,0.0
23/10/2022,00:44:49,-0.001,0.0,0.0,0.0
23/10/2022,00:45:49,-0.000,0.0,0.0,0.0
23/10/2022,00:46:50,-0.000,0.0,0.0,0.0
23/10/2022,00:47:50,0.001,0.0,0.0,0.0
23/10/2022,00:48:50,-0.001,0.0,0.0,0.0
23/10/2022,00:49:49,-0.000,0.0,0.0,0.0
23/10/2022,00:50:49,-0.000,0.0,0.0,0.0
23/10/2022,00:51:49,-0.000,0.0,0.0,0.0
23/10/2022,00:52:49,-0.000,0.0,0.0,0.0
23/10/2022,00:53:50,0.000,0.0,0.0,0.0
23/10/2022,00:54:49,-0.000,0.0,0.0,0.0
23/10/2022,00:55:50,0.000,0.0,0.0,0.0
23/10/2022,00:56:49,0.001,0.0,0.0,0.0
23/10/2022,00:57:49,-0.000,0.0,0.0,0.0
23/10/2022,00:58:49,-0.000,0.0,0.0,0.0
23/10/2022,00:59:49,-0.001,0.0,0.0,0.0
23/10/2022,01:00:49,0.000,0.0,0.0,0.0
23/10/2022,01:01:49,-0.001,0.0,0.0,0.0
23/10/2022,01:02:49,-0.001,0.0,0.0,0.0
23/10/2022,01:03:50,-0.001,0.0,0.0,0.0
23/10/2022,01:04:49,-0.000,0.0,0.0,0.0
23/10/2022,01:05:49,0.000,0.0,0.0,0.0
23/10/2022,01:06:50,-0.001,0.0,0.0,0.0
23/10/2022,01:07:49,-0.000,0.0,0.0,0.0
23/10/2022,01:08:50,0.000,0.0,0.0,0.0
23/10/2022,01:09:49,-0.000,0.0,0.0,0.0
23/10/2022,01:10:49,-0.001,0.0,0.0,0.0
23/10/2022,01:11:49,-0.000,0.0,0.0,0.0
23/10/2022,01:12:50,-0.000,0.0,0.0,0.0
23/10/2022,01:13:49,-0.001,0.0,0.0,0.0
23/10/2022,01:14:49,0.001,0.0,0.0,0.0
23/10/2022,01:15:49,-0.000,0.0,0.0,0.0
23/10/2022,01:16:49,-0.000,0.0,0.0,0.0
23/10/2022,01:17:50,0.000,0.0,0.0,0.0
23/10/2022,01:18:49,-0.001,0.0,0.0,0.0
23/10/2022,01:19:49,-0.000,0.0,0.0,0.0
23/10/2022,01:20:50,-0.000,0.0,0.0,0.0
23/10/2022,01:21:51,-0.000,0.0,0.0,0.0
23/10/2022,01:22:50,-0.001,0.0,0.0,0.0
23/10/2022,01:23:50,-0.000,0.0,0.0,0.0
23/10/2022,01:24:50,0.000,0.0,0.0,0.0
23/10/2022,01:25:49,-0.000,0.0,0.0,0.0
23/10/2022,01:26:49,-0.000,0.0,0.0,0.0
23/10/2022,01:27:50,-0.000,0.0,0.0,0.0
23/10/2022,01:28:49,-0.000,0.0,0.0,0.0
23/10/2022,01:29:49,-0.000,0.0,0.0,0.0
23/10/2022,01:30:49,0.000,0.0,0.0,0.0
23/10/2022,01:31:50,-0.000,0.0,0.0,0.0
23/10/2022,01:32:49,-0.001,0.0,0.0,0.0
23/10/2022,01:33:50,-0.000,0.0,0.0,0.0
23/10/2022,01:34:49,-0.000,0.0,0.0,0.0
23/10/2022,01:35:50,-0.000,0.0,0.0,0.0
23/10/2022,01:36:54,-0.000,0.0,0.0,0.0
23/10/2022,01:37:50,-0.000,0.0,0.0,0.0
23/10/2022,01:38:49,-0.000,0.0,0.0,0.0
23/10/2022,01:39:49,-0.000,0.0,0.0,0.0
23/10/2022,01:40:49,-0.000,0.0,0.0,0.0
23/10/2022,01:41:49,-0.000,0.0,0.0,0.0
23/10/2022,01:42:49,-0.001,0.0,0.0,0.0
23/10/2022,01:43:50,-0.001,0.0,0.0,0.0
23/10/2022,01:44:50,-0.000,0.0,0.0,0.0
23/10/2022,01:45:50,-0.000,0.0,0.0,0.0
23/10/2022,01:46:49,-0.000,0.0,0.0,0.0
23/10/2022,01:47:49,0.000,0.0,0.0,0.0
23/10/2022,01:48:49,-0.000,0.0,0.0,0.0
23/10/2022,01:49:50,-0.001,0.0,0.0,0.0
23/10/2022,01:50:50,-0.000,0.0,0.0,0.0
23/10/2022,01:51:49,-0.000,0.0,0.0,0.0
23/10/2022,01:52:49,-0.001,0.0,0.0,0.0
23/10/2022,01:53:50,-0.000,0.0,0.0,0.0
23/10/2022,01:54:50,-0.000,0.0,0.0,0.0
23/10/2022,01:55:50,0.000,0.0,0.0,0.0
23/10/2022,01:56:49,-0.000,0.0,0.0,0.0
23/10/2022,01:57:50,-0.000,0.0,0.0,0.0
23/10/2022,01:58:49,-0.000,0.0,0.0,0.0
23/10/2022,01:59:50,0.000,0.0,0.0,0.0
23/10/2022,02:00:49,0.000,0.0,0.0,0.0
23/10/2022,02:01:50,-0.000,0.0,0.0,0.0
23/10/2022,02:02:50,-0.000,0.0,0.0,0.0
23/10/2022,02:03:49,-0.000,0.0,0.0,0.0
23/10/2022,02:04:49,-0.000,0.0,0.0,0.0
23/10/2022,02:05:49,-0.000,0.0,0.0,0.0
23/10/2022,02:06:50,-0.000,0.0,0.0,0.0
23/10/2022,02:07:49,-0.001,0.0,0.0,0.0
23/10/2022,02:08:49,-0.000,0.0,0.0,0.0
23/10/2022,02:09:50,0.001,0.0,0.0,0.0
23/10/2022,02:10:50,-0.000,0.0,0.0,0.0
23/10/2022,02:11:49,0.000,0.0,0.0,0.0
23/10/2022,02:12:50,0.001,0.0,0.0,0.0
23/10/2022,02:13:49,-0.001,0.0,0.0,0.0
23/10/2022,02:14:50,-0.001,0.0,0.0,0.0
23/10/2022,02:15:50,-0.000,0.0,0.0,0.0
23/10/2022,02:16:49,0.000,0.0,0.0,0.0
23/10/2022,02:17:50,-0.001,0.0,0.0,0.0
23/10/2022,02:18:49,-0.000,0.0,0.0,0.0
23/10/2022,02:19:49,-0.000,0.0,0.0,0.0
23/10/2022,02:20:49,-0.001,0.0,0.0,0.0
23/10/2022,02:21:50,-0.000,0.0,0.0,0.0
23/10/2022,02:22:49,-0.001,0.0,0.0,0.0
23/10/2022,02:23:50,-0.000,0.0,0.0,0.0
23/10/2022,02:24:50,-0.001,0.0,0.0,0.0
23/10/2022,02:25:49,-0.001,0.0,0.0,0.0
23/10/2022,02:26:50,-0.000,0.0,0.0,0.0
23/10/2022,02:27:49,0.001,0.0,0.0,0.0
23/10/2022,02:28:49,-0.000,0.0,0.0,0.0
23/10/2022,02:29:50,0.000,0.0,0.0,0.0
23/10/2022,02:30:50,-0.000,0.0,0.0,0.0
23/10/2022,02:31:50,0.000,0.0,0.0,0.0
23/10/2022,02:32:49,-0.000,0.0,0.0,0.0
23/10/2022,02:33:50,-0.000,0.0,0.0,0.0
23/10/2022,02:34:49,-0.000,0.0,0.0,0.0
23/10/2022,02:35:49,0.000,0.0,0.0,0.0
23/10/2022,02:36:49,-0.000,0.0,0.0,0.0
23/10/2022,02:37:50,-0.001,0.0,0.0,0.0
23/10/2022,02:38:50,0.000,0.0,0.0,0.0
23/10/2022,02:39:49,0.000,0.0,0.0,0.0
23/10/2022,02:40:50,-0.000,0.0,0.0,0.0
23/10/2022,02:41:49,-0.000,0.0,0.0,0.0
23/10/2022,02:42:50,-0.000,0.0,0.0,0.0
23/10/2022,02:43:50,-0.001,0.0,0.0,0.0
23/10/2022,02:44:49,-0.000,0.0,0.0,0.0
23/10/2022,02:45:50,-0.000,0.0,0.0,0.0
23/10/2022,02:46:49,-0.000,0.0,0.0,0.0
23/10/2022,02:47:49,-0.001,0.0,0.0,0.0
23/10/2022,02:48:50,-0.000,0.0,0.0,0.0
23/10/2022,02:49:50,-0.001,0.0,0.0,0.0
23/10/2022,02:50:49,-0.000,0.0,0.0,0.0
23/10/2022,02:51:49,-0.000,0.0,0.0,0.0
23/10/2022,02:52:50,-0.000,0.0,0.0,0.0
23/10/2022,02:53:49,-0.000,0.0,0.0,0.0
23/10/2022,02:54:49,-0.000,0.0,0.0,0.0
23/10/2022,02:55:49,-0.001,0.0,0.0,0.0
23/10/2022,02:56:50,-0.000,0.0,0.0,0.0
23/10/2022,02:59:06,-0.000,0.0,0.0,0.0
23/10/2022,02:59:49,-0.000,0.0,0.0,0.0
23/10/2022,03:00:49,-0.000,0.0,0.0,0.0
23/10/2022,03:01:49,-0.000,0.0,0.0,0.0
23/10/2022,03:02:49,-0.000,0.0,0.0,0.0
23/10/2022,03:03:50,-0.000,0.0,0.0,0.0
23/10/2022,03:04:50,-0.000,0.0,0.0,0.0
23/10/2022,03:05:49,-0.000,0.0,0.0,0.0
23/10/2022,03:06:50,-0.000,0.0,0.0,0.0
23/10/2022,03:07:50,-0.000,0.0,0.0,0.0
23/10/2022,03:08:49,0.000,0.0,0.0,0.0
23/10/2022,03:09:49,0.000,0.0,0.0,0.0
23/10/2022,03:10:50,-0.000,0.0,0.0,0.0
23/10/2022,03:11:49,-0.001,0.0,0.0,0.0
23/10/2022,03:12:50,-0.000,0.0,0.0,0.0
23/10/2022,03:13:49,0.000,0.0,0.0,0.0
23/10/2022,03:14:50,-0.000,0.0,0.0,0.0
23/10/2022,03:15:49,0.001,0.0,0.0,0.0
23/10/2022,03:16:50,-0.000,0.0,0.0,0.0
23/10/2022,03:17:50,0.000,0.0,0.0,0.0
23/10/2022,03:18:49,-0.000,0.0,0.0,0.0
23/10/2022,03:19:50,0.000,0.0,0.0,0.0
23/10/2022,03:20:50,-0.000,0.0,0.0,0.0
23/10/2022,03:21:49,-0.001,0.0,0.0,0.0
23/10/2022,03:22:49,-0.000,0.0,0.0,0.0
23/10/2022,03:23:49,-0.001,0.0,0.0,0.0
23/10/2022,03:24:50,-0.000,0.0,0.0,0.0
23/10/2022,03:25:49,-0.000,0.0,0.0,0.0
23/10/2022,03:26:50,-0.000,0.0,0.0,0.0
23/10/2022,03:27:50,-0.001,0.0,0.0,0.0
23/10/2022,03:28:49,0.001,0.0,0.0,0.0
23/10/2022,03:29:50,-0.000,0.0,0.0,0.0
23/10/2022,03:30:49,-0.001,0.0,0.0,0.0
23/10/2022,03:31:49,-0.001,0.0,0.0,0.0
23/10/2022,03:32:49,-0.000,0.0,0.0,0.0
23/10/2022,03:33:49,-0.000,0.0,0.0,0.0
23/10/2022,03:34:50,-0.001,0.0,0.0,0.0
23/10/2022,03:35:49,-0.001,0.0,0.0,0.0
23/10/2022,03:36:50,-0.001,0.0,0.0,0.0
23/10/2022,03:37:49,-0.000,0.0,0.0,0.0
23/10/2022,03:38:50,-0.000,0.0,0.0,0.0
23/10/2022,03:39:49,-0.000,0.0,0.0,0.0
23/10/2022,03:40:50,-0.000,0.0,0.0,0.0
23/10/2022,03:41:49,0.000,0.0,0.0,0.0
23/10/2022,03:42:49,-0.000,0.0,0.0,0.0
23/10/2022,03:43:50,-0.000,0.0,0.0,0.0
23/10/2022,03:44:50,-0.001,0.0,0.0,0.0
23/10/2022,03:47:06,-0.001,0.0,0.0,0.0
23/10/2022,03:47:49,-0.001,0.0,0.0,0.0
23/10/2022,03:48:49,-0.001,0.0,0.0,0.0
23/10/2022,03:49:49,-0.001,0.0,0.0,0.0
23/10/2022,03:50:50,-0.000,0.0,0.0,0.0
23/10/2022,03:51:49,-0.001,0.0,0.0,0.0
23/10/2022,03:52:50,-0.001,0.0,0.0,0.0
23/10/2022,03:53:50,-0.001,0.0,0.0,0.0
23/10/2022,03:54:49,-0.001,0.0,0.0,0.0
23/10/2022,03:55:49,-0.000,0.0,0.0,0.0
23/10/2022,03:56:49,-0.001,0.0,0.0,0.0
23/10/2022,03:57:50,-0.001,0.0,0.0,0.0
23/10/2022,03:58:50,-0.001,0.0,0.0,0.0
23/10/2022,03:59:49,-0.001,0.0,0.0,0.0
23/10/2022,04:00:50,-0.001,0.0,0.0,0.0
23/10/2022,04:01:50,-0.000,0.0,0.0,0.0
23/10/2022,04:02:50,-0.001,0.0,0.0,0.0
23/10/2022,04:03:49,-0.001,0.0,0.0,0.0
23/10/2022,04:04:50,-0.001,0.0,0.0,0.0
23/10/2022,04:05:49,-0.001,0.0,0.0,0.0
23/10/2022,04:06:50,-0.001,0.0,0.0,0.0
23/10/2022,04:07:49,-0.001,0.0,0.0,0.0
23/10/2022,04:08:50,-0.001,0.0,0.0,0.0
23/10/2022,04:09:49,-0.001,0.0,0.0,0.0
23/10/2022,04:10:51,-0.001,0.0,0.0,0.0
23/10/2022,04:11:49,0.000,0.0,0.0,0.0
23/10/2022,04:12:50,-0.001,0.0,0.0,0.0
23/10/2022,04:13:50,-0.001,0.0,0.0,0.0
23/10/2022,04:14:49,-0.001,0.0,0.0,0.0
23/10/2022,04:15:50,-0.001,0.0,0.0,0.0
23/10/2022,04:16:50,-0.001,0.0,0.0,0.0
23/10/2022,04:17:50,-0.001,0.0,0.0,0.0
23/10/2022,04:18:49,0.000,0.0,0.0,0.0
23/10/2022,04:19:50,-0.001,0.0,0.0,0.0
23/10/2022,04:20:49,-0.001,0.0,0.0,0.0
23/10/2022,04:21:50,-0.001,0.0,0.0,0.0
23/10/2022,04:22:49,-0.001,0.0,0.0,0.0
23/10/2022,04:23:50,-0.001,0.0,0.0,0.0
23/10/2022,04:24:50,-0.001,0.0,0.0,0.0
23/10/2022,04:25:50,-0.001,0.0,0.0,0.0
23/10/2022,04:26:50,-0.001,0.0,0.0,0.0
23/10/2022,04:27:50,-0.001,0.0,0.0,0.0
23/10/2022,04:28:50,-0.001,0.0,0.0,0.0
23/10/2022,04:29:49,-0.001,0.0,0.0,0.0
23/10/2022,04:30:50,-0.001,0.0,0.0,0.0
23/10/2022,04:31:49,0.000,0.0,0.0,0.0
23/10/2022,04:32:49,-0.001,0.0,0.0,0.0
23/10/2022,04:33:49,-0.001,0.0,0.0,0.0
23/10/2022,04:34:49,-0.001,0.0,0.0,0.0
23/10/2022,04:35:50,-0.001,0.0,0.0,0.0
23/10/2022,04:36:50,-0.001,0.0,0.0,0.0
23/10/2022,04:37:50,-0.001,0.0,0.0,0.0
23/10/2022,04:38:50,-0.001,0.0,0.0,0.0
23/10/2022,04:39:50,-0.001,0.0,0.0,0.0
23/10/2022,04:40:49,-0.001,0.0,0.0,0.0
23/10/2022,04:41:50,-0.001,0.0,0.0,0.0
23/10/2022,04:42:49,-0.001,0.0,0.0,0.0
23/10/2022,04:43:50,0.000,0.0,0.0,0.0
23/10/2022,04:44:50,-0.001,0.0,0.0,0.0
23/10/2022,04:45:49,-0.001,0.0,0.0,0.0
23/10/2022,04:46:50,-0.001,0.0,0.0,0.0
23/10/2022,04:47:50,-0.001,0.0,0.0,0.0
23/10/2022,04:48:50,0.000,0.0,0.0,0.0
23/10/2022,04:49:49,-0.001,0.0,0.0,0.0
23/10/2022,04:50:50,-0.001,0.0,0.0,0.0
23/10/2022,04:51:50,0.000,0.0,0.0,0.0
23/10/2022,04:52:49,-0.001,0.0,0.0,0.0
23/10/2022,04:53:50,-0.001,0.0,0.0,0.0
23/10/2022,04:54:50,-0.001,0.0,0.0,0.0
23/10/2022,04:55:50,-0.001,0.0,0.0,0.0
23/10/2022,04:56:50,0.000,0.0,0.0,0.0
23/10/2022,04:57:49,-0.001,0.0,0.0,0.0
23/10/2022,04:58:50,-0.001,0.0,0.0,0.0
23/10/2022,04:59:49,-0.001,0.0,0.0,0.0
23/10/2022,05:00:49,-0.001,0.0,0.0,0.0
23/10/2022,05:01:50,-0.001,0.0,0.0,0.0
23/10/2022,05:02:50,-0.001,0.0,0.0,0.0
23/10/2022,05:03:50,-0.001,0.0,0.0,0.0
23/10/2022,05:04:49,-0.001,0.0,0.0,0.0
23/10/2022,05:05:50,-0.001,0.0,0.0,0.0
23/10/2022,05:06:50,-0.001,0.0,0.0,0.0
23/10/2022,05:07:50,-0.001,0.0,0.0,0.0
23/10/2022,05:08:50,-0.001,0.0,0.0,0.0
23/10/2022,05:09:49,-0.001,0.0,0.0,0.0
23/10/2022,05:10:49,-0.000,0.0,0.0,0.0
23/10/2022,05:11:50,-0.000,0.0,0.0,0.0
23/10/2022,05:12:49,-0.000,0.0,0.0,0.0
23/10/2022,05:13:50,0.001,0.0,0.0,0.0
23/10/2022,05:14:49,-0.000,0.0,0.0,0.0
23/10/2022,05:15:50,-0.000,0.0,0.0,0.0
23/10/2022,05:16:49,-0.000,0.0,0.0,0.0
23/10/2022,05:17:50,-0.000,0.0,0.0,0.0
23/10/2022,05:18:50,-0.001,0.0,0.0,0.0
23/10/2022,05:19:49,-0.000,0.0,0.0,0.0
23/10/2022,05:20:49,-0.000,0.0,0.0,0.0
23/10/2022,05:21:50,-0.000,0.0,0.0,0.0
23/10/2022,05:22:50,-0.000,0.0,0.0,0.0
23/10/2022,05:23:50,-0.000,0.0,0.0,0.0
23/10/2022,05:24:49,-0.000,0.0,0.0,0.0
23/10/2022,05:25:50,-0.001,0.0,0.0,0.0
23/10/2022,05:26:49,-0.001,0.0,0.0,0.0
23/10/2022,05:27:50,-0.001,0.0,0.0,0.0
23/10/2022,05:28:50,-0.001,0.0,0.0,0.0
23/10/2022,05:29:50,-0.001,0.0,0.0,0.0
23/10/2022,05:30:50,0.000,0.0,0.0,0.0
23/10/2022,05:31:49,0.001,0.0,0.0,0.0
23/10/2022,05:32:50,-0.000,0.0,0.0,0.0
23/10/2022,05:33:49,-0.001,0.0,0.0,0.0
23/10/2022,05:34:50,-0.000,0.0,0.0,0.0
23/10/2022,05:35:49,-0.000,0.0,0.0,0.0
23/10/2022,05:36:50,-0.000,0.0,0.0,0.0
23/10/2022,05:37:50,0.001,0.0,0.0,0.0
23/10/2022,05:38:50,-0.000,0.0,0.0,0.0
23/10/2022,05:39:49,0.001,0.0,0.0,0.0
23/10/2022,05:40:50,-0.000,0.0,0.0,0.0
23/10/2022,05:41:50,0.001,0.0,0.0,0.0
23/10/2022,05:42:49,-0.000,0.0,0.0,0.0
23/10/2022,05:43:49,-0.001,0.0,0.0,0.0
23/10/2022,05:44:50,-0.000,0.0,0.0,0.0
23/10/2022,05:45:49,-0.000,0.0,0.0,0.0
23/10/2022,05:46:50,0.001,0.0,0.0,0.0
23/10/2022,05:47:50,-0.000,0.0,0.0,0.0
23/10/2022,05:48:50,-0.001,0.0,0.0,0.0
23/10/2022,05:49:50,-0.000,0.0,0.0,0.0
23/10/2022,05:50:50,-0.001,0.0,0.0,0.0
23/10/2022,05:51:50,0.000,0.0,0.0,0.0
23/10/2022,05:52:50,-0.000,0.0,0.0,0.0
23/10/2022,05:53:49,-0.000,0.0,0.0,0.0
23/10/2022,05:54:50,0.000,0.0,0.0,0.0
23/10/2022,05:55:50,-0.000,0.0,0.0,0.0
23/10/2022,05:56:50,-0.000,0.0,0.0,0.0
23/10/2022,05:57:49,-0.001,0.0,0.0,0.0
23/10/2022,05:58:50,0.001,0.0,0.0,0.0
23/10/2022,05:59:49,-0.000,0.0,0.0,0.0
23/10/2022,06:00:49,-0.000,0.0,0.0,0.0
23/10/2022,06:01:49,-0.001,0.0,0.0,0.0
23/10/2022,06:02:50,0.000,0.0,0.0,0.0
23/10/2022,06:03:50,0.001,0.0,0.0,0.0
23/10/2022,06:04:50,-0.000,0.0,0.0,0.0
23/10/2022,06:05:50,-0.000,0.0,0.0,0.0
23/10/2022,06:06:49,-0.000,0.0,0.0,0.0
23/10/2022,06:07:49,-0.001,0.0,0.0,0.0
23/10/2022,06:08:50,-0.001,0.0,0.0,0.0
23/10/2022,06:09:50,-0.000,0.0,0.0,0.0
23/10/2022,06:10:52,-0.001,0.0,0.0,0.0
23/10/2022,06:11:50,-0.000,0.0,0.0,0.0
23/10/2022,06:12:50,-0.000,0.0,0.0,0.0
23/10/2022,06:13:50,-0.001,0.0,0.0,0.0
23/10/2022,06:14:49,-0.000,0.0,0.0,0.0
23/10/2022,06:15:50,-0.000,0.0,0.0,0.0
23/10/2022,06:16:49,0.000,0.0,0.0,0.0
23/10/2022,06:17:49,-0.000,0.0,0.0,0.0
23/10/2022,06:18:50,-0.000,0.0,0.0,0.0
23/10/2022,06:19:50,-0.000,0.0,0.0,0.0
23/10/2022,06:20:50,-0.001,0.0,0.0,0.0
23/10/2022,06:21:49,-0.000,0.0,0.0,0.0
23/10/2022,06:22:50,-0.000,0.0,0.0,0.0
23/10/2022,06:23:49,-0.000,0.0,0.0,0.0
23/10/2022,06:24:49,-0.000,0.0,0.0,0.0
23/10/2022,06:25:49,-0.000,0.0,0.0,0.0
23/10/2022,06:26:50,-0.000,0.0,0.0,0.0
23/10/2022,06:27:50,-0.000,0.0,0.0,0.0
23/10/2022,06:28:50,-0.000,0.0,0.0,0.0
23/10/2022,06:29:50,-0.000,0.0,0.0,0.0
23/10/2022,06:30:49,-0.001,0.0,0.0,0.0
23/10/2022,06:31:50,-0.000,0.0,0.0,0.0
23/10/2022,06:32:49,-0.001,0.0,0.0,0.0
23/10/2022,06:33:50,-0.000,0.0,0.0,0.0
23/10/2022,06:34:50,-0.000,0.0,0.0,0.0
23/10/2022,06:35:50,-0.001,0.0,0.0,0.0
23/10/2022,06:36:49,-0.000,0.0,0.0,0.0
23/10/2022,06:37:50,0.001,0.0,0.0,0.0
23/10/2022,06:38:50,-0.000,0.0,0.0,0.0
23/10/2022,06:39:49,-0.000,0.0,0.0,0.0
23/10/2022,06:40:50,-0.000,0.0,0.0,0.0
23/10/2022,06:41:50,-0.001,0.0,0.0,0.0
23/10/2022,06:42:50,-0.000,0.0,0.0,0.0
23/10/2022,06:43:50,-0.000,0.0,0.0,0.0
23/10/2022,06:44:50,-0.001,0.0,0.0,0.0
23/10/2022,06:45:50,0.000,0.0,0.0,0.0
23/10/2022,06:46:50,-0.000,0.0,0.0,0.0
23/10/2022,06:47:50,-0.000,0.0,0.0,0.0
23/10/2022,06:48:49,0.000,0.0,0.0,0.0
23/10/2022,06:49:50,-0.000,0.0,0.0,0.0
23/10/2022,06:50:50,0.001,0.0,0.0,0.0
23/10/2022,06:51:50,-0.000,0.0,0.0,0.0
23/10/2022,06:52:50,-0.001,0.0,0.0,0.0
23/10/2022,06:53:50,0.000,0.0,0.0,0.0
23/10/2022,06:54:50,0.000,0.0,0.0,0.0
23/10/2022,06:55:50,0.000,0.0,0.0,0.0
23/10/2022,06:56:50,0.000,0.0,0.0,0.0
23/10/2022,06:57:50,-0.000,0.0,0.0,0.0
23/10/2022,06:58:50,0.001,0.0,0.0,0.0
23/10/2022,06:59:50,0.000,0.0,0.0,0.0
23/10/2022,07:00:50,0.001,0.0,0.0,0.0
23/10/2022,07:01:49,0.001,0.0,0.0,0.0
23/10/2022,07:02:49,0.001,0.0,0.0,0.0
23/10/2022,07:03:50,0.001,0.0,0.0,0.0
23/10/2022,07:04:50,0.000,0.0,0.0,0.0
23/10/2022,07:05:50,0.001,0.0,0.0,0.0
23/10/2022,07:06:50,0.001,0.0,0.0,0.0
23/10/2022,07:07:50,0.001,0.0,0.0,0.0
23/10/2022,07:08:49,0.001,0.0,0.0,0.0
23/10/2022,07:09:50,0.000,0.0,0.0,0.0
23/10/2022,07:10:50,0.001,0.0,0.0,0.0
23/10/2022,07:11:50,0.002,0.0,0.0,0.0
23/10/2022,07:12:46,0.001,0.0,0.0,0.0
23/10/2022,07:14:47,0.001,0.0,0.0,0.0
23/10/2022,07:15:50,0.002,0.0,0.0,0.0
23/10/2022,07:16:50,0.001,0.0,0.0,0.0
23/10/2022,07:17:50,0.001,0.0,0.0,0.0
23/10/2022,07:18:49,0.001,0.0,0.0,0.0
23/10/2022,07:19:49,0.001,0.0,0.0,0.0
23/10/2022,07:20:46,0.001,0.0,0.0,0.0
23/10/2022,07:22:46,0.002,0.0,0.0,0.0
23/10/2022,07:23:46,0.002,0.0,0.0,0.0
23/10/2022,07:25:46,0.000,0.0,0.0,0.0
23/10/2022,07:26:50,0.001,0.0,0.0,0.0
23/10/2022,07:27:50,0.001,0.0,0.0,0.0
23/10/2022,07:28:50,0.001,0.0,0.0,0.0
23/10/2022,07:29:50,0.000,0.0,0.0,0.0
23/10/2022,07:30:50,0.002,0.0,0.0,0.0
23/10/2022,07:31:50,0.002,0.0,0.0,0.0
23/10/2022,07:32:50,0.001,0.0,0.0,0.0
23/10/2022,07:33:50,-0.000,0.0,0.0,0.0
23/10/2022,07:34:50,0.000,0.0,0.0,0.0
23/10/2022,07:35:50,0.001,0.0,0.0,0.0
23/10/2022,07:36:50,0.001,0.0,0.0,0.0
23/10/2022,07:37:49,0.002,0.0,0.0,0.0
23/10/2022,07:38:49,0.003,0.0,0.0,0.0
23/10/2022,07:39:50,0.003,0.0,0.0,0.0
23/10/2022,07:40:50,0.003,0.0,0.0,0.0
23/10/2022,07:41:49,0.005,0.0,0.0,0.0
23/10/2022,07:42:49,0.004,0.0,0.0,0.0
23/10/2022,07:43:50,0.003,0.0,0.0,0.0
23/10/2022,07:44:50,0.003,0.0,0.0,0.0
23/10/2022,07:45:51,0.004,0.0,0.0,0.0
23/10/2022,07:46:50,0.003,0.0,0.0,0.0
23/10/2022,07:47:50,0.001,0.0,0.0,0.0
23/10/2022,07:48:50,0.002,0.0,0.0,0.0
23/10/2022,07:49:50,0.003,0.0,0.0,0.0
23/10/2022,07:50:49,0.003,0.0,0.0,0.0
23/10/2022,07:51:50,0.005,0.0,0.0,0.0
23/10/2022,07:52:50,0.005,0.0,0.0,0.0
23/10/2022,07:53:50,0.005,0.0,0.0,0.0
23/10/2022,07:54:50,0.007,0.0,0.0,0.0
23/10/2022,07:55:50,0.007,0.0,0.0,0.0
23/10/2022,07:56:50,0.005,0.0,0.0,0.0
23/10/2022,07:57:50,0.005,0.0,0.0,0.0
23/10/2022,07:58:50,0.004,0.0,0.0,0.0
23/10/2022,07:59:49,0.004,0.0,0.0,0.0
23/10/2022,08:00:50,0.004,0.0,0.0,0.0
23/10/2022,08:01:50,0.004,0.0,0.0,0.0
23/10/2022,08:02:50,0.004,0.0,0.0,0.0
23/10/2022,08:03:50,0.003,0.0,0.0,0.0
23/10/2022,08:04:50,0.003,0.0,0.0,0.0
23/10/2022,08:05:50,0.003,0.0,0.0,0.0
23/10/2022,08:06:50,0.003,0.0,0.0,0.0
23/10/2022,08:07:50,0.002,0.0,0.0,0.0
23/10/2022,08:08:50,0.003,0.0,0.0,0.0
23/10/2022,08:09:50,0.003,0.0,0.0,0.0
23/10/2022,08:10:50,0.003,0.0,0.0,0.0
23/10/2022,08:11:50,0.004,0.0,0.0,0.0
23/10/2022,08:12:50,0.004,0.0,0.0,0.0
23/10/2022,08:13:50,0.004,0.0,0.0,0.0
23/10/2022,08:14:50,0.005,0.0,0.0,0.0
23/10/2022,08:15:50,0.005,0.0,0.0,0.0
23/10/2022,08:16:51,0.006,0.0,0.0,0.0
23/10/2022,08:17:50,0.009,0.0,0.0,0.0
23/10/2022,08:18:50,0.009,0.0,0.0,0.0
23/10/2022,08:19:50,0.011,0.0,0.001,0.001
23/10/2022,08:20:50,0.011,0.0,0.001,0.0
23/10/2022,08:21:50,0.013,0.0,0.001,0.0
23/10/2022,08:22:50,0.013,0.0,0.001,0.0
23/10/2022,08:23:50,0.013,0.0,0.001,0.0
23/10/2022,08:24:50,0.013,0.0,0.002,0.001
23/10/2022,08:25:50,0.013,0.0,0.002,0.0
23/10/2022,08:26:50,0.013,0.0,0.002,0.0
23/10/2022,08:27:50,0.013,0.0,0.002,0.0
23/10/2022,08:28:50,0.012,0.0,0.002,0.0
23/10/2022,08:29:50,0.012,0.0,0.003,0.001
23/10/2022,08:30:50,0.014,0.0,0.003,0.0
23/10/2022,08:31:50,0.013,0.0,0.003,0.0
23/10/2022,08:32:50,0.012,0.0,0.003,0.0
23/10/2022,08:33:50,0.013,0.0,0.004,0.001
23/10/2022,08:34:50,0.015,0.0,0.004,0.0
23/10/2022,08:35:50,0.015,0.0,0.004,0.0
23/10/2022,08:36:50,0.016,0.0,0.004,0.0
23/10/2022,08:37:50,0.017,0.0,0.005,0.001
23/10/2022,08:38:50,0.016,0.0,0.005,0.0
23/10/2022,08:39:50,0.016,0.0,0.005,0.0
23/10/2022,08:40:50,0.013,0.0,0.005,0.0
23/10/2022,08:41:50,0.013,0.0,0.005,0.0
23/10/2022,08:42:50,0.012,0.0,0.006,0.001
23/10/2022,08:43:50,0.010,0.0,0.006,0.0
23/10/2022,08:44:52,0.009,0.0,0.006,0.0
23/10/2022,08:45:50,0.008,0.0,0.006,0.0
23/10/2022,08:46:50,0.009,0.0,0.006,0.0
23/10/2022,08:47:50,0.008,0.0,0.006,0.0
23/10/2022,08:48:50,0.007,0.0,0.007,0.001
23/10/2022,08:49:50,0.007,0.0,0.007,0.0
23/10/2022,08:50:50,0.008,0.0,0.007,0.0
23/10/2022,08:51:50,0.007,0.0,0.007,0.0
23/10/2022,08:52:50,0.008,0.0,0.007,0.0
23/10/2022,08:53:50,0.008,0.0,0.007,0.0
23/10/2022,08:54:50,0.009,0.0,0.007,0.0
23/10/2022,08:55:50,0.011,0.0,0.008,0.001
23/10/2022,08:56:50,0.013,0.0,0.008,0.0
23/10/2022,08:57:51,0.017,0.0,0.008,0.0
23/10/2022,08:58:50,0.020,0.0,0.008,0.0
23/10/2022,08:59:50,0.021,0.0,0.009,0.001
23/10/2022,09:00:50,0.021,0.0,0.009,0.0
23/10/2022,09:01:50,0.020,0.0,0.009,0.0
23/10/2022,09:02:50,0.022,0.0,0.01,0.001
23/10/2022,09:03:50,0.024,0.0,0.01,0.0
23/10/2022,09:04:50,0.022,0.0,0.01,0.0
23/10/2022,09:05:50,0.022,0.0,0.011,0.001
23/10/2022,09:06:50,0.021,0.0,0.011,0.0
23/10/2022,09:07:50,0.018,0.0,0.012,0.001
23/10/2022,09:08:50,0.018,0.0,0.012,0.0
23/10/2022,09:09:50,0.018,0.0,0.012,0.0
23/10/2022,09:10:50,0.017,0.0,0.012,0.0
23/10/2022,09:11:50,0.015,0.0,0.013,0.001
23/10/2022,09:12:50,0.014,0.0,0.013,0.0
23/10/2022,09:13:50,0.014,0.0,0.013,0.0
23/10/2022,09:14:50,0.016,0.0,0.013,0.0
23/10/2022,09:15:50,0.019,0.0,0.014,0.001
23/10/2022,09:16:50,0.024,0.0,0.014,0.0
23/10/2022,09:17:50,0.029,0.0,0.015,0.001
23/10/2022,09:18:50,0.035,0.0,0.015,0.0
23/10/2022,09:19:50,0.044,0.0,0.016,0.001
23/10/2022,09:20:50,0.049,0.0,0.016,0.0
23/10/2022,09:21:50,0.051,0.0,0.017,0.001
23/10/2022,09:22:50,0.055,0.0,0.018,0.001
23/10/2022,09:23:50,0.062,0.0,0.019,0.001
23/10/2022,09:24:50,0.064,0.0,0.02,0.001
23/10/2022,09:25:50,0.067,0.0,0.021,0.001
23/10/2022,09:26:50,0.073,0.0,0.022,0.001
23/10/2022,09:27:50,0.076,0.0,0.024,0.002
23/10/2022,09:28:50,0.079,0.0,0.025,0.001
23/10/2022,09:29:50,0.082,0.0,0.026,0.001
23/10/2022,09:30:50,0.087,0.0,0.028,0.002
23/10/2022,09:31:50,0.088,0.0,0.029,0.001
23/10/2022,09:32:50,0.091,0.0,0.031,0.002
23/10/2022,09:33:50,0.089,0.0,0.032,0.001
23/10/2022,09:34:50,0.087,0.0,0.034,0.002
23/10/2022,09:35:50,0.086,0.0,0.035,0.001
23/10/2022,09:36:50,0.083,0.0,0.037,0.002
23/10/2022,09:37:50,0.081,0.0,0.038,0.001
23/10/2022,09:38:50,0.080,0.0,0.039,0.001
23/10/2022,09:39:50,0.078,0.0,0.041,0.002
23/10/2022,09:40:50,0.077,0.0,0.042,0.001
23/10/2022,09:41:50,0.077,0.0,0.043,0.001
23/10/2022,09:42:50,0.078,0.0,0.044,0.001
23/10/2022,09:43:51,0.079,0.0,0.046,0.002
23/10/2022,09:44:50,0.081,0.0,0.047,0.001
23/10/2022,09:45:50,0.083,0.0,0.048,0.001
23/10/2022,09:46:50,0.085,0.0,0.05,0.002
23/10/2022,09:47:51,0.089,0.0,0.051,0.001
23/10/2022,09:48:50,0.093,0.0,0.053,0.002
23/10/2022,09:49:50,0.096,0.0,0.054,0.001
23/10/2022,09:50:50,0.102,0.0,0.056,0.002
23/10/2022,09:51:50,0.107,0.0,0.058,0.002
23/10/2022,09:52:50,0.117,0.0,0.06,0.002
23/10/2022,09:53:50,0.128,0.0,0.062,0.002
23/10/2022,09:54:50,0.140,0.0,0.064,0.002
23/10/2022,09:55:50,0.156,0.0,0.066,0.002
23/10/2022,09:56:50,0.185,0.0,0.069,0.003
23/10/2022,09:57:50,0.223,1.0,0.073,0.004
23/10/2022,09:58:51,0.234,1.0,0.076,0.003
23/10/2022,09:59:50,0.209,0.0,0.08,0.004
23/10/2022,10:00:50,0.214,0.0,0.084,0.004
23/10/2022,10:01:50,0.231,1.0,0.087,0.003
23/10/2022,10:02:50,0.239,1.0,0.091,0.004
23/10/2022,10:03:50,0.263,1.0,0.095,0.004
23/10/2022,10:04:50,0.284,1.0,0.1,0.005
23/10/2022,10:05:50,0.304,1.0,0.105,0.005
23/10/2022,10:06:50,0.330,1.0,0.11,0.005
23/10/2022,10:07:50,0.343,1.0,0.116,0.006
23/10/2022,10:08:50,0.389,1.0,0.122,0.006
23/10/2022,10:09:50,0.391,1.0,0.128,0.006
23/10/2022,10:10:50,0.368,1.0,0.135,0.007
23/10/2022,10:11:50,0.378,1.0,0.141,0.006
23/10/2022,10:12:50,0.381,1.0,0.147,0.006
23/10/2022,10:13:51,0.333,1.0,0.153,0.006
23/10/2022,10:14:50,0.349,1.0,0.159,0.006
23/10/2022,10:15:50,0.359,1.0,0.164,0.005
23/10/2022,10:16:50,0.335,1.0,0.17,0.006